Weather History for Lee's Summit, MO

Change the Weather History Date:

Friday, January 18, 2013

  Actual Average (KMKC) Record (KMKC)
Temperature  
Mean Temperature 44 °F -  
Max Temperature 55 °F 37 °F 57 °F (2006)
Min Temperature 34 °F 21 °F 6 °F (1997)
Degree Days  
Heating Degree Days 20    
Moisture  
Dew Point 27 °F    
Average Humidity 54    
Maximum Humidity 70    
Minimum Humidity 34    
Precipitation  
Precipitation 0.00 in - - ()
Sea Level Pressure  
Sea Level Pressure 30.22 in    
Wind  
Wind Speed 15 mph (SSW)    
Max Wind Speed 28 mph    
Max Gust Speed 41 mph    
Visibility 10 miles    
Events      
Averages and records for this station are not official NWS values.
T = Trace of Precipitation, MM = Missing Value Source: NWS Daily Summary

Daily Weather History Graph

Daily Weather History Graph

Search for Another Location

Airport:

Trip Planner

Search our weather history database for the weather conditions in past years. The results will help you decide how hot, cold, wet, or windy it might be!

Date:

Astronomy

Jan. 18, 2013 Rise Set
Actual Time 7:33 AM CST 5:23 PM CST
Civil Twilight 7:04 AM CST 5:52 PM CST
Nautical Twilight 6:31 AM CST 6:24 PM CST
Astronomical Twilight 5:59 AM CST 6:56 PM CST
Moon 11:16 AM CST (1/18) 12:10 AM CST (1/18)
Length of Visible Light 10h 47m
Length of Day
9h 49m
Waxing Crescent, 47% of the Moon is Illuminated
Jan 18
Waxing Crescent
Jan 18
First Quarter
Jan 26
Full
Feb 3
Last Quarter
Feb 10
New

Hourly Weather History & Observations

Time (CST) Temp. Windchill Dew Point Humidity Pressure Visibility Wind Dir Wind Speed Gust Speed Precip Events Conditions
12:53 AM 34.0 °F 26.6 °F 25.0 °F 70% 30.43 in 10.0 mi South 9.2 mph - N/A   Clear
1:53 AM 34.0 °F 25.5 °F 25.0 °F 70% 30.43 in 10.0 mi SSW 11.5 mph - N/A   Clear
2:53 AM 35.1 °F 25.9 °F 25.0 °F 67% 30.42 in 10.0 mi South 13.8 mph 19.6 mph N/A   Clear
3:53 AM 34.0 °F 26.0 °F 25.0 °F 70% 30.40 in 10.0 mi SSW 10.4 mph - N/A   Clear
4:53 AM 34.0 °F 24.6 °F 25.0 °F 70% 30.37 in 10.0 mi SSW 13.8 mph 20.7 mph N/A   Clear
5:53 AM 34.0 °F 25.0 °F 25.0 °F 70% 30.36 in 10.0 mi SSW 12.7 mph - N/A   Clear
6:53 AM 35.1 °F 26.4 °F 25.0 °F 67% 30.35 in 10.0 mi SSW 12.7 mph - N/A   Clear
7:53 AM 35.1 °F 25.9 °F 25.0 °F 67% 30.35 in 10.0 mi SSW 13.8 mph 20.7 mph N/A   Clear
8:53 AM 37.0 °F 27.4 °F 26.1 °F 65% 30.33 in 10.0 mi SSW 17.3 mph 26.5 mph N/A   Clear
9:53 AM 42.1 °F 34.5 °F 28.0 °F 58% 30.31 in 10.0 mi SSW 15.0 mph 21.9 mph N/A   Clear
10:53 AM 46.9 °F - 28.0 °F 48% 30.27 in 10.0 mi SSW 19.6 mph 28.8 mph N/A   Clear
11:53 AM 51.1 °F - 28.9 °F 43% 30.21 in 10.0 mi SSW 18.4 mph 38.0 mph N/A   Clear
12:53 PM 53.1 °F - 28.0 °F 38% 30.16 in 10.0 mi SSW 25.3 mph 40.3 mph N/A   Clear
1:53 PM 55.0 °F - 28.0 °F 35% 30.13 in 10.0 mi SW 27.6 mph 41.4 mph N/A   Clear
2:53 PM 55.9 °F - 28.0 °F 34% 30.10 in 10.0 mi SW 25.3 mph 36.8 mph N/A   Clear
3:53 PM 55.0 °F - 28.0 °F 35% 30.08 in 10.0 mi SSW 23.0 mph 34.5 mph N/A   Clear
4:53 PM 54.0 °F - 28.9 °F 38% 30.08 in 10.0 mi SSW 21.9 mph 32.2 mph N/A   Clear
5:53 PM 51.1 °F - 30.0 °F 44% 30.10 in 10.0 mi SW 17.3 mph 24.2 mph N/A   Clear
6:53 PM 48.0 °F - 30.0 °F 50% 30.10 in 10.0 mi SSW 13.8 mph 20.7 mph N/A   Clear
7:53 PM 48.0 °F - 28.9 °F 48% 30.09 in 10.0 mi SSW 17.3 mph 26.5 mph N/A   Clear
8:53 PM 46.0 °F 40.2 °F 28.9 °F 51% 30.10 in 10.0 mi SSW 12.7 mph 21.9 mph N/A   Clear
9:53 PM 46.0 °F 39.0 °F 28.9 °F 51% 30.08 in 10.0 mi SSW 17.3 mph 25.3 mph N/A   Clear
10:53 PM 46.9 °F - 28.9 °F 50% 30.06 in 10.0 mi SSW 19.6 mph 29.9 mph N/A   Clear
11:53 PM 46.9 °F - 28.9 °F 50% 30.04 in 10.0 mi SW 16.1 mph 26.5 mph N/A   Clear